ARIANE 2 DEB

基本信息
目录编号:
27034
目录名称:
ARIANE 2 DEB
国际标识:
1989-006P
轨道中心:
EARTH
物体状态:
在轨
发射日期:
1989-01-27 UTC
轨道信息
数据来源: 国际轨道数据
星历时间: 2026-06-12T23:29:34+0800
半长轴: 24610.532km
偏心率: 0.7109913
轨道倾角: 8.151°
近地点辐角: 1.798°
升交点赤经: 301.045°
平近点角: 341.703°
近地点: 734.52km
远地点: 35730.27km
周期: 640.385分钟
每日圈数: 2.248647
详细信息
发射场:
FRGUI
轨道高度:
LEO
数据来源:
AOE Integration Group
参考系:
TEME
时间系统:
UTC
历元类型:
SGP4
2D轨道图
3D轨道图
轨道高度分析图
轨道倾角分析图
轨道综合分析图
查看轨道综合分析图